Regional Weather Roundup
Issued by NWS

Home | Current Version | Previous Version | Text Only | Print | Product List | Glossary Off
Versions: 1 2 3 4 5 6 7 8 9 10 11 12 13 14 15 16 17 18 19 20 21 22 23 24 25 26 27 28 29 30 31 32 33 34 35 36 37 38 39 40 41 42 43 44 45 46 47 48 49 50

314
ASUS45 KBOU 190607
RWRCO

WEATHER ROUNDUP FOR COLORADO
NATIONAL WEATHER SERVICE DENVER/BOULDER CO
1100 PM MST WED JAN 18 2017

NOTE: "FAIR" INDICATES FEW OR NO CLOUDS BELOW 12000 FEET WITH NO
SIGNIFICANT WEATHER AND/OR OBSTRUCTIONS TO VISIBILITY.

COZ001>005-013-030-031-190700-
...NORTHWEST COLORADO...

CITY           SKY/WX    TMP DP  RH WIND       PRES   REMARKS
CRAIG          FAIR       5   1  83 CALM      29.97S
HAYDEN         FAIR      18  10  73 E12       29.95S WCI   5
MEEKER         FAIR      15  12  88 CALM      29.96S
MOUNT WERNER   NOT AVBL
STEAMBOAT SPGS FAIR      10   9  95 CALM      29.95F
WALDEN           N/A    N/A N/A N/A SE5       29.93S
$$

COZ006>008-011-190700-
...WEST CENTRAL VALLEYS...

CITY           SKY/WX    TMP DP  RH WIND       PRES   REMARKS
GRAND JUNCTION FAIR      28  27  96 NE6       29.98S WCI  22
MONTROSE       FAIR      28  24  85 SE7       30.00F WCI  21
EAGLE          CLEAR     18  12  79 SE5       30.01F WCI  11
RIFLE          FAIR      25  22  88 W5        29.98F WCI  19
DELTA          FAIR      32  27  81 E3        30.00S
NUCLA          FAIR      30  25  80 E9        30.03S WCI  22
$$

COZ017>023-064>068-190700-
...SOUTHWEST COLORADO...

CITY           SKY/WX    TMP DP  RH WIND       PRES   REMARKS
DURANGO        FAIR      27  22  81 CALM      29.97F
CORTEZ         FAIR      25  23  92 E3        30.00S
PAGOSA SPRINGS CLOUDY    32  31  96 CALM      29.99S
TELLURIDE      FAIR      20  16  83 SE8       30.00F WCI  11
WOLF CREEK PAS   N/A     12  12 100 SW12G17   29.99F WCI  -2
$$

COZ009-010-012-014-032>034-037-058>063-190700-
...CENTRAL COLORADO...

CITY           SKY/WX    TMP DP  RH WIND       PRES   REMARKS
ASPEN          FAIR      13   9  84 S8        29.98R WCI   2
BUENA VISTA    FAIR       8   5  86 CALM      29.88S
COPPER MTN     FAIR      21  12  68 MISG      29.95S
BERTHOUD PASS  NOT AVBL
COTTONWOOD PAS FAIR      30  14  51 NW9       29.86F WCI  22
GUNNISON       FAIR       2  -2  83 NE8       30.04S WCI -12
KREMMLING      FAIR       7   3  85 CALM      30.02R
LEADVILLE      FAIR      12   6  77 N10       29.90S WCI  -1
MONARCH PASS   CLOUDY    12   9  85 MISG      30.01F
SALIDA         FAIR      24  19  78 CALM      29.93F
SUNLIGHT       FAIR      16  14  93 SW12      30.00S WCI   3
WILKERSON PASS FAIR      30   3  31 NW9       29.88F WCI  22
$$

COZ069>075-190700-
...SAN LUIS VALLEY/SANGRE DE CRISTO MOUNTAINS...

CITY           SKY/WX    TMP DP  RH WIND       PRES   REMARKS
ALAMOSA        CLOUDY    24  21  88 CALM      29.97S
LA VETA PASS   CLOUDY    19  16  86 NE37G46   29.84F FOG     WCI  -1
SAGUACHE       CLOUDY    19  18  93 NW3       29.98S
$$

COZ035-036-038>040-190700-
...NORTHERN COLORADO FRONT RANGE...

CITY           SKY/WX    TMP DP  RH WIND       PRES   REMARKS
DENVER INTL AP FAIR      34  17  50 SW9       29.68F WCI  27
DMNS CITY PARK   N/A     32  17  53 SE6       29.69F WCI  26
AURORA         PTCLDY    30  15  54 S9        29.69F WCI  22
FRONT RANGE AP FAIR      30  21  69 S7        29.69F WCI  23
ERIE MUNI ARPT FAIR      23  19  86 CALM      29.70S
BOULDER MUN AP FAIR      34  19  55 SW5       29.69F WCI  30
CENTENNIAL     FAIR      32  10  40 S7        29.70S WCI  26
BROOMFIELD     FAIR      41  14  33 CALM      29.70F
FORT COLLINS   FAIR      32  19  59 CALM      29.70S
LONGMONT       FAIR      27  18  70 CALM      29.71F
$$

COZ041-046-047-076>085-087-088-190700-
...PIKES PEAK/PALMER DIVIDE AND SOUTHERN FOOTHILLS...

CITY           SKY/WX    TMP DP  RH WIND       PRES   REMARKS
COLO. SPRINGS  FAIR      29  16  58 N7        29.71F WCI  22
A. F. ACADEMY  FAIR      28  11  50 N9        29.70F WCI  19
SCHRIEVER AFB  NOT AVBL
ELLICOTT       FAIR     N/A N/A N/A CALM      29.69F
FALCON         FAIR      37   2  23 NW8       29.72F
FORT CARSON    NOT AVBL
LIMON          FAIR      18  15  88 NW5       29.69F WCI  11
MONUMENT HILL  FAIR      21  10  63 SW7       29.73F WCI  13
TRINIDAD       FAIR      25  18  74 W12       29.72F WCI  14
$$

COZ042>045-048>051-090-091-190700-
...NORTHEAST COLORADO...

CITY           SKY/WX    TMP DP  RH WIND       PRES   REMARKS
GREELEY ARPT   FAIR      25  23  92 W8        29.70S WCI  16
AKRON          FAIR      30  18  60 SW9       29.66F WCI  22
BURLINGTON     FAIR      31  27  85 SW8       29.69F WCI  23
WRAY           FAIR      27  23  86 W6        29.68  WCI  20
STERLING       FAIR      25  23  93 CALM      29.67F
HOLYOKE        FAIR      23  19  86 SW3       29.68F
FORT MORGAN    FAIR      26  20  80 W8        29.68F WCI  17
$$

COZ086-089-092>099-190700-
...SOUTHEAST COLORADO...

CITY           SKY/WX    TMP DP  RH WIND       PRES   REMARKS
PUEBLO         FAIR      26  23  88 W7        29.70F WCI  18
LA JUNTA       FAIR      24  21  88 CALM      29.70F FOG
LAMAR          FAIR      21  19  92 SW7       29.69F WCI  12
SPRINGFIELD      N/A     27  25  92 W3        29.68F
$$




USA.gov is the U.S. government's official web portal to all federal, state and local government web resources and services.